Regional Weather Roundup
Issued by NWS

Home | Current Version | Previous Version | Text Only | Print | Product List | Glossary On
Versions: 1 2 3 4 5 6 7 8 9 10 11 12 13 14 15 16 17 18 19 20 21 22 23 24 25 26 27 28 29 30 31 32 33 34 35 36 37 38 39 40 41 42 43 44 45 46 47 48 49 50
000
ASUS43 KDTX 292301
RWRMI
MICHIGAN HOURLY REGIONAL WEATHER ROUNDUP
NATIONAL WEATHER SERVICE DETROIT/PONTIAC MI
700 PM EDT WED JUL 29 2015

NOTE: "FAIR" INDICATES FEW OR NO CLOUDS BELOW 12,000 FEET WITH NO
SIGNIFICANT WEATHER AND/OR OBSTRUCTION TO VISIBILITY.

MIZ047>049-052>055-059>063-066>070-074>076-081>083-300000-
SOUTHEAST LOWER MICHIGAN

CITY           SKY/WX    TMP DP  RH WIND       PRES   REMARKS
ADRIAN         MOSUNNY   80  76  87 SW7       29.91F
ALMA           SUNNY     82  55  38 W12G20    29.89S
ANN ARBOR      PTSUNNY   81  74  79 SW10      29.89F
BAD AXE        LGT RAIN  79  76  88 SW6       29.84S
CARO           MOSUNNY   82  74  76 W10       29.85R
DETROIT CITY   PTSUNNY   80  74  81 SW10      29.89R
DETROIT        PTSUNNY   83  74  74 SW9       29.89S
FLINT          MOSUNNY   87  69  54 W15       29.87R HX  91
GROSSE ILE     LGT RAIN  81  75  83 SW9       29.88S
HILLSDALE      MOSUNNY   84  72  67 W14G24    29.94R
HOWELL         SUNNY     84  65  53 W16G22    29.90R

CITY           SKY/WX    TMP DP  RH WIND       PRES   REMARKS
JACKSON        MOSUNNY   82  66  58 NW13      29.93R
LAMBERTVILLE   CLOUDY    80  75  84 SW3       29.90F
LANSING        SUNNY     83  56  39 W15       29.91S
LAPEER         CLOUDY    77  75  93 SE5       29.87S
MASON          SUNNY     80  56  42 W10G18    29.91S
MONROE         CLOUDY    80  74  84 W6        29.89S
MT. CLEMENS    CLOUDY    78  75  90 SW8       29.86S
PONTIAC        PTSUNNY   78  73  84 S9        29.89R
PORT HOPE        N/A     83  76  79 VRB7      29.80F HX  91
PORT HURON     PTSUNNY   77  75  94 SW5       29.87R
TRI CITIES     SUNNY     85  58  39 W15G23    29.86S
MIDLAND        FAIR      86  53  31 W10       29.84S
TROY           HVY RAIN  77  75  93 MISG      29.91S
SAGINAW HB     SUNNY     84  59  42 W14G20    29.85R
$$
MIZ043>046-050>051-056>058-064>065-071>073-077>080-300000-
SOUTHWEST LOWER MICHIGAN

CITY           SKY/WX    TMP DP  RH WIND       PRES   REMARKS
BATTLE CREEK   SUNNY     83  58  42 NW13      29.95R
BENTON HARBOR  SUNNY     80  62  54 W9        29.95S
BIG RAPIDS     SUNNY     80  47  31 W13G20    29.90R
COLDWATER      SUNNY     81  60  49 NW10      29.94S
FREMONT        FAIR      81  48  31 W12G20    29.91R
HOLLAND        SUNNY     81  60  48 W9G17     29.94S
GRAND RAPIDS   MOSUNNY   84  51  31 W15G22    29.92S
IONIA          FAIR      82  52  35 W14       29.91S
KALAMAZOO      SUNNY     81  56  42 W16G22    29.95R
LUDINGTON      SUNNY     78  61  55 SW12      29.89R
MARSHALL       SUNNY     82  60  48 W14       29.93S
MOUNT PLEASANT SUNNY     85  52  31 W13       29.87R
MUSKEGON       MOSUNNY   80  59  48 SW8       29.92S
SOUTH HAVEN    SUNNY     79  63  57 W8        29.95S
$$
MIZ016>042-300000-
NORTHERN LOWER MICHIGAN

CITY           SKY/WX    TMP DP  RH WIND       PRES   REMARKS
ALPENA         SUNNY     89  50  26 SW10G20   29.78S
BEAVER ISLAND  SUNNY     76  58  53 SW18G24   29.78F
BELLAIRE       SUNNY     83  49  30 W9G18     29.83R
CADILLAC       SUNNY     81  51  35 W14G20    29.89R
CHARLEVOIX     SUNNY     81  53  38 SW13G22   29.84F
FRANKFORT      SUNNY     78  62  57 SW3       29.85S
GAYLORD        SUNNY     82  48  30 W22G30    29.85R
GRAYLING       SUNNY     82  49  31 W15G23    29.86R
HARBOR SPRINGS SUNNY     78  58  49 W9G16     29.81S
HOUGHTON LAKE  SUNNY     82  55  39 W14G22    29.87R
MANISTEE       SUNNY     81  54  39 W13       29.87S
OSCODA         SUNNY     88  58  36 W15       29.79S
PELLSTON       SUNNY     81  53  37 SW14G25   29.80S
ROGERS CITY    SUNNY     84  51  31 W15G23    29.79S
TRAVERSE CITY  MOSUNNY   85  50  29 W21G29    29.82R
$$
MIZ007>008-015-300000-
EASTERN UPPER MICHIGAN

CITY           SKY/WX    TMP DP  RH WIND       PRES   REMARKS
KINROSS        SUNNY     73  54  49 N12       29.79R
MACKINAC ISLAN SUNNY     77  56  48 SW15G26   29.78S
MUNISING         N/A     70  60  70 NE6       29.78R
$$
MIZ004>006-011>014-085-300000-
CENTRAL UPPER MICHIGAN

CITY           SKY/WX    TMP DP  RH WIND       PRES   REMARKS
ESCANABA       CLOUDY    82  54  36 W23G32    29.76R
MENOMINEE      CLOUDY    81  54  39 NW9       29.81R
SAWYER-GWINN   CLOUDY    73  52  46 W16G26    29.82R
$$
MIZ001>003-009>011-084-300000-
WESTERN UPPER MICHIGAN

CITY           SKY/WX    TMP DP  RH WIND       PRES   REMARKS
IRON MOUNTAIN  CLOUDY    77  55  46 W12G22    29.82R
HOUGHTON       CLOUDY    72  54  53 W23G40    29.74S
COPPER HARBOR    N/A     73  55  53 NW12G28   29.71S
IRONWOOD       CLOUDY    72  57  60 SW10      29.78F
$$

ABBREVIATIONS USED IN REMARKS
   TC - TEMPERATURE IN CELSIUS
  WCI - WIND CHILL INDEX
   HX - HEAT INDEX
  VSB - VISIBILITY




USA.gov is the U.S. government's official web portal to all federal, state and local government web resources and services.